Theta_e
326 328 329 330 332 332 332 331 330 329 328 327 325 323 323 322 318 313 309 305 301 295 293 292 291 291 290 289 289 290 290 291 292 290 290 289 289 288 287 287 286 286 285
318 320 324 327 329 330 330 329 328 328 327 325 324 320 319 317 314 309 307 302 297 293 292 291 290 290 290 289 289 290 290 290 291 291 290 289 289 288 287 287 286 286 285
312 314 317 321 326 326 327 326 325 326 325 323 320 317 314 316 307 307 305 301 295 292 291 291 290 289 290 289 289 289 289 289 289 289 289 289 289 287 287 286 286 286 286
311 312 313 316 321 320 321 321 322 323 322 321 317 313 311 308 308 303 299 296 292 291 291 290 290 289 289 289 289 289 289 288 288 287 288 289 288 287 287 286 286 286 287
309 310 311 312 315 316 317 317 319 318 316 314 311 307 305 305 301 303 296 293 291 291 290 289 289 289 288 289 289 289 288 288 287 287 288 289 288 287 286 285 284 285 285
307 308 308 309 309 309 309 310 312 312 312 309 306 305 302 301 301 298 296 292 290 290 289 289 289 288 288 288 288 288 288 288 287 287 288 288 288 287 285 284 283 282 283
306 306 306 307 307 306 306 306 307 307 307 305 302 300 299 298 297 295 293 290 290 289 289 288 288 288 287 287 287 288 288 288 287 287 287 287 287 286 285 283 282 282 282
304 303 304 304 304 303 303 303 304 303 302 301 298 297 297 295 295 294 291 292 289 289 288 288 288 287 287 287 286 286 286 287 286 286 286 286 286 285 285 283 282 282 282
302 302 302 302 302 302 303 302 300 299 297 296 296 295 294 295 293 291 291 288 288 288 288 287 287 287 287 286 286 286 286 286 286 286 285 285 285 285 284 282 282 282 282
299 300 300 300 300 301 302 301 299 297 295 293 292 291 292 290 291 288 288 287 287 287 287 287 287 287 286 286 286 286 285 286 286 285 284 284 284 284 283 283 282 282 281
298 298 298 298 298 298 298 297 296 293 291 291 291 290 290 289 288 288 287 287 287 287 286 286 286 286 286 286 286 286 285 286 285 285 284 284 283 283 283 282 282 281 281
295 295 295 295 295 295 294 293 291 290 289 288 288 288 289 288 288 288 287 287 286 286 286 286 286 286 286 285 286 286 285 285 285 285 284 283 282 282 282 282 281 282 281
294 293 292 292 291 291 291 291 290 289 288 287 287 286 287 286 286 287 288 287 286 286 286 286 286 286 286 286 285 285 285 286 286 285 283 283 282 282 283 282 281 281 280
292 291 291 290 290 289 288 289 288 288 287 286 286 286 285 285 285 285 287 288 288 286 286 286 286 285 285 285 285 285 286 286 285 285 284 284 282 282 282 282 281 280 278
289 289 288 288 287 287 287 286 287 287 287 287 287 286 285 284 285 285 285 286 287 287 286 285 285 285 285 285 284 284 284 284 285 284 284 283 282 281 281 280 279 278 277
288 288 287 287 286 286 286 285 286 285 285 285 285 285 285 285 285 286 286 285 285 286 286 285 284 284 284 284 283 283 283 283 283 283 283 282 281 280 280 279 277 277 276
286 286 286 285 285 285 284 284 284 284 285 284 284 284 285 284 285 285 285 285 284 285 286 285 285 285 285 284 283 283 283 283 283 282 281 280 280 279 278 278 277 276 275
285 284 284 284 284 284 283 283 283 283 283 283 283 284 284 284 285 284 285 284 285 285 285 286 285 285 285 284 283 283 282 282 282 281 280 279 278 278 277 276 276 276 275
282 282 283 283 283 283 282 282 282 282 282 282 283 283 283 284 284 284 285 285 285 285 285 285 285 285 284 284 284 283 282 282 281 281 280 279 277 277 276 276 276 275 274
281 281 281 281 281 281 281 281 281 281 281 281 282 282 283 283 283 284 284 284 285 285 285 285 285 284 284 284 284 283 282 282 281 280 279 278 277 276 275 274 275 274 273
279 279 279 280 279 278 278 278 279 279 280 280 280 280 282 283 282 283 283 284 284 284 284 285 285 285 284 284 283 283 282 281 279 278 277 276 275 275 274 274 274 273 273
278 278 278 278 277 277 277 276 276 276 276 276 277 277 278 279 280 281 281 282 283 283 283 284 284 284 283 282 282 281 279 278 277 276 276 275 274 273 273 273 272 271 270
275 275 275 275 274 274 274 274 274 273 273 273 273 274 274 275 276 276 276 277 278 278 279 280 280 279 279 278 278 277 276 276 277 276 275 274 273 272 272 271 270 269 269
272 272 272 272 272 271 271 271 271 271 271 271 271 271 272 272 272 273 273 273 273 274 274 275 274 274 274 274 274 274 274 274 274 273 273 272 272 271 270 269 269 268 268
269 270 270 269 269 269 268 268 268 268 268 269 269 269 269 269 270 270 270 270 270 270 271 271 271 271 271 271 271 272 272 272 271 271 271 270 270 270 269 268 268 267 267
268 268 267 267 267 266 266 266 266 266 266 266 266 267 267 267 268 268 268 268 268 268 268 268 268 268 269 269 270 270 270 270 270 270 269 269 268 268 267 267 267 267 266
Wind_Speed
35 36 35 35 35 34 34 36 36 38 36 37 35 37 38 38 36 33 30 28 27 26 24 22 19 18 17 16 15 14 13 12 7 6 11 8 4 5 4 2 3 4 6
28 30 32 32 32 35 37 35 34 37 36 35 32 35 40 39 38 35 33 31 30 30 27 24 22 20 18 17 16 16 14 13 11 11 10 9 8 7 4 3 3 4 7
24 26 28 27 29 31 35 34 32 35 35 33 32 36 39 40 37 36 34 32 33 31 29 27 25 24 22 20 19 17 15 13 12 12 9 8 8 8 5 4 3 4 7
18 20 23 23 28 29 28 30 31 32 32 33 32 35 39 39 38 34 33 31 32 29 27 25 25 25 24 22 21 18 17 15 12 11 9 9 9 8 8 7 4 6 8
18 19 21 21 21 23 24 26 26 28 27 27 29 32 34 37 35 34 34 32 33 29 26 25 23 22 21 21 22 21 19 16 14 11 11 12 10 11 10 5 7 8 4
16 18 17 19 19 19 19 21 22 25 26 26 28 32 35 36 35 34 32 32 32 29 27 25 22 21 22 22 20 18 17 18 14 13 14 13 12 11 9 8 6 6 5
14 15 15 16 16 16 17 18 19 22 24 26 28 30 34 33 33 32 30 32 28 30 28 28 26 25 24 24 21 18 18 17 13 13 15 13 12 11 12 10 7 6 7
11 13 14 15 16 15 15 17 18 21 23 26 29 31 31 32 30 29 32 30 31 30 27 27 26 25 25 23 22 21 20 17 15 16 16 14 13 12 13 14 10 9 12
11 14 15 15 16 15 15 17 18 20 22 25 27 29 31 32 30 32 33 32 28 26 23 24 25 24 23 23 21 21 19 17 14 15 15 16 16 13 13 12 12 9 6
10 13 14 14 16 17 17 17 19 20 22 23 23 24 26 27 24 25 29 27 26 25 23 23 23 22 22 23 24 22 21 18 16 16 17 17 17 16 15 18 14 14 9
10 10 11 12 14 15 15 16 18 19 20 20 22 23 24 23 23 26 29 29 28 27 27 25 25 24 21 21 20 22 23 15 16 17 17 18 16 16 18 20 18 18 15
9 8 8 9 10 11 12 13 14 16 17 18 19 21 23 23 25 27 26 25 26 26 26 25 25 24 22 20 20 22 18 15 17 18 19 20 18 16 15 15 15 15 15
9 9 9 8 8 8 11 13 14 15 16 17 19 19 22 23 25 24 23 21 21 23 25 24 22 21 22 21 22 21 18 21 23 23 22 21 18 15 14 15 16 17 17
11 10 8 8 8 7 8 11 13 14 15 15 17 17 19 23 25 25 26 24 23 22 23 22 20 19 20 22 22 21 24 27 28 25 24 22 17 16 19 18 20 17 14
14 12 11 10 8 7 7 10 12 14 15 17 19 19 18 21 28 30 31 31 31 28 22 20 19 21 23 24 26 27 30 30 30 27 27 24 22 21 22 19 18 17 17
12 12 11 9 8 7 7 8 8 10 12 14 15 16 19 22 23 25 29 30 29 26 22 22 23 25 24 26 26 24 25 27 30 32 31 29 28 27 26 22 21 20 19
14 12 10 10 9 8 8 8 11 11 10 12 14 16 17 20 22 24 24 23 25 23 26 23 24 24 26 26 27 27 27 30 29 29 30 29 29 27 24 24 24 22 20
13 12 11 10 9 8 8 8 9 10 13 16 15 13 16 17 17 16 17 16 19 25 25 23 23 24 27 28 29 27 26 25 28 29 29 28 28 27 26 27 27 25 23
13 13 10 9 11 12 11 10 9 9 11 13 14 13 14 15 16 16 15 21 21 21 24 25 26 27 27 28 28 26 25 25 29 29 30 30 28 28 28 29 27 25 23
13 13 11 9 9 8 8 10 11 11 12 14 15 16 17 14 16 18 21 23 22 22 25 27 27 29 29 27 28 27 28 27 27 29 31 31 30 31 29 28 28 26 27
13 12 13 11 10 10 9 9 9 11 12 12 13 14 14 14 17 18 22 23 26 25 25 27 27 29 33 34 32 29 29 29 28 29 29 30 29 30 30 29 28 28 27
12 11 11 11 10 11 11 10 10 11 12 14 16 15 13 14 18 19 20 21 21 22 25 28 29 31 32 32 31 30 30 30 29 28 30 30 30 30 29 29 28 28 27
11 11 11 11 12 12 13 11 11 12 14 15 16 17 17 17 17 18 20 19 20 23 24 24 24 24 25 26 27 27 29 31 31 30 29 30 31 31 30 28 26 24 26
10 11 12 12 12 13 13 13 13 13 13 14 14 15 15 16 16 18 19 20 20 20 19 21 22 23 24 26 27 27 27 28 29 28 27 28 28 28 27 26 27 26 24
11 12 12 13 13 13 13 13 12 12 13 15 16 15 16 17 18 18 19 20 19 19 19 19 20 21 21 21 23 23 24 23 25 25 25 25 27 27 27 27 26 25 24
11 11 12 12 13 13 14 15 15 15 15 15 15 16 16 17 17 17 17 18 18 18 18 19 19 19 19 19 19 19 20 20 21 22 22 23 25 25 25 25 25 24 23
Wind_Direction
226 226 226 227 227 227 226 234 238 236 230 232 233 227 220 213 210 209 209 204 201 197 195 196 198 199 193 189 186 188 192 194 184 180 206 211 226 258 265 298 339 343 350
230 229 229 231 229 225 227 233 240 238 236 231 234 229 220 214 209 211 207 203 202 195 195 194 196 192 194 190 189 191 194 194 197 188 197 200 220 242 265 275 321 355 352
230 226 223 222 223 227 230 231 233 234 236 231 234 228 222 214 215 211 211 207 204 202 199 197 197 193 192 193 191 192 195 200 203 197 188 204 227 237 263 258 294 351 354
229 226 225 225 224 226 229 236 236 233 232 229 230 228 221 219 212 212 209 206 204 202 203 202 200 199 198 193 192 194 196 197 197 194 190 217 236 238 274 280 297 343 5
228 226 230 227 227 228 229 229 228 228 232 235 232 227 223 216 217 207 212 204 203 199 203 202 203 205 203 199 197 195 198 197 203 199 212 230 223 224 253 276 300 333 0
234 233 230 227 233 235 233 230 229 231 234 232 229 228 220 219 214 215 212 206 205 202 197 199 199 200 201 198 198 201 204 198 200 211 228 233 219 233 244 258 287 336 308
235 238 233 233 231 232 234 234 232 235 232 228 228 225 222 216 216 214 208 211 208 208 204 203 198 200 203 201 198 197 200 201 214 221 223 234 239 237 242 246 247 265 267
247 247 244 242 240 234 231 232 233 231 230 227 224 220 217 217 217 210 212 214 214 214 207 209 208 202 204 203 204 207 212 213 216 225 234 241 243 246 250 264 245 267 299
248 249 245 242 242 237 237 239 238 237 232 227 226 219 213 213 211 211 214 208 207 211 212 214 214 209 207 209 211 217 219 219 226 232 240 242 242 241 248 240 240 250 275
284 272 263 252 249 245 243 239 239 234 234 228 223 221 217 216 217 214 214 211 208 207 211 214 216 218 215 214 217 220 224 224 227 229 238 245 247 245 240 244 249 247 252
331 305 287 280 269 264 257 247 241 231 227 224 217 216 216 218 217 217 216 212 215 212 211 212 217 218 217 217 221 231 233 236 237 237 241 249 263 252 243 242 244 247 248
352 333 313 293 278 267 258 257 250 240 227 221 217 215 217 219 219 223 217 218 217 224 221 224 227 224 224 218 220 229 237 233 238 234 239 245 259 258 257 257 255 249 254
19 6 352 331 305 285 267 253 238 234 231 224 218 220 224 219 217 217 214 216 217 224 230 233 234 232 224 220 224 225 227 229 235 234 232 245 256 258 252 244 243 257 262
42 34 22 1 340 317 284 267 256 250 239 231 232 228 230 230 224 219 215 216 228 228 228 228 228 223 221 227 230 227 230 232 233 234 237 250 254 243 241 241 249 249 251
51 41 32 23 3 339 309 287 282 276 270 258 255 250 237 235 240 233 228 225 222 227 228 229 218 218 225 227 233 236 233 236 238 240 239 244 244 242 244 247 243 236 233
63 53 46 40 22 7 341 328 304 289 282 274 266 272 268 266 264 258 246 242 230 221 216 215 218 219 221 228 228 225 226 229 236 240 244 247 245 245 247 242 237 235 235
47 44 45 40 33 21 4 349 329 337 319 289 282 267 263 263 261 265 259 244 228 217 220 222 223 222 228 232 232 229 227 232 239 246 246 242 241 245 237 233 231 232 234
50 38 32 26 22 23 11 354 341 326 318 317 322 300 263 255 262 254 240 230 229 228 228 231 229 232 237 239 236 233 234 233 241 244 241 240 238 234 226 227 228 227 232
48 41 38 32 23 11 9 360 348 335 322 313 314 305 302 274 261 252 240 230 226 229 231 233 235 242 249 253 250 243 233 232 239 236 238 239 235 230 227 230 232 229 226
50 43 38 27 24 16 13 4 354 347 337 327 321 313 310 303 259 252 244 239 241 245 245 244 245 250 255 256 250 245 241 240 239 242 242 242 238 235 230 227 225 220 218
44 36 37 26 17 8 3 358 340 329 328 326 322 320 312 286 271 264 255 249 247 247 246 249 254 260 265 258 252 245 247 247 247 243 243 243 240 234 235 233 230 223 223
31 27 22 15 7 359 356 352 348 336 327 321 318 317 313 295 291 285 281 275 271 270 267 266 265 264 263 260 261 261 259 254 251 251 249 247 244 240 238 232 227 222 216
17 12 9 5 2 356 352 352 344 337 331 329 328 323 321 315 305 297 294 289 286 281 279 279 282 278 274 273 275 274 272 266 265 261 254 250 243 238 233 224 215 209 211
2 358 356 354 350 349 347 342 341 337 332 327 325 322 318 314 309 306 302 300 299 291 287 287 288 288 287 286 284 281 277 272 267 263 260 253 245 241 234 226 221 217 213
355 354 355 352 348 345 337 334 332 328 326 326 325 323 318 316 314 310 308 307 304 299 296 297 294 293 292 289 287 284 281 276 270 265 259 253 250 246 238 228 221 216 213
345 345 344 344 341 339 337 335 331 330 326 322 318 317 316 316 314 312 311 309 308 307 304 300 300 301 299 294 290 285 279 276 270 265 258 251 245 241 233 227 224 215 215